Time,TemperatureF,DewpointF,PressureIn,WindDirection,WindDirectionDegrees,WindSpeedMPH,WindSpeedGustMPH,Humidity,HourlyPrecipIn,Conditions,Clouds,dailyrainin,SolarRadiationWatts/m^2,SoftwareType,DateUTC
2013-01-15 00:02:00,14.0,12.0,-100.00,North,0,0.0,0.0,92,-99.99,,,0.00,0.000000,,2013-01-15 07:02:00,
2013-01-15 00:12:00,14.0,12.0,-100.00,North,0,0.0,0.0,92,-99.99,,,0.00,0.000000,,2013-01-15 07:12:00,
2013-01-15 00:42:00,14.0,11.0,-100.00,North,0,0.0,0.0,89,-99.99,,,0.00,0.000000,,2013-01-15 07:42:00,
2013-01-15 00:52:00,14.0,11.0,-100.00,North,0,0.0,0.0,89,-99.99,,,0.00,0.000000,,2013-01-15 07:52:00,
2013-01-15 01:02:00,14.0,11.0,-100.00,North,0,0.0,0.0,89,-99.99,,,0.00,0.000000,,2013-01-15 08:02:00,
2013-01-15 01:12:00,14.0,11.0,-100.00,North,0,0.0,0.0,89,-99.99,,,0.00,0.000000,,2013-01-15 08:12:00,
2013-01-15 01:42:00,16.0,13.0,-100.00,North,0,0.0,0.0,89,-99.99,,,0.00,0.000000,,2013-01-15 08:42:00,
2013-01-15 01:53:00,16.0,13.0,-100.00,North,0,0.0,0.0,89,-99.99,,,0.00,0.000000,,2013-01-15 08:53:00,
2013-01-15 02:02:00,16.0,13.0,-100.00,North,0,0.0,0.0,89,-99.99,,,0.00,0.000000,,2013-01-15 09:02:00,
2013-01-15 02:11:00,16.0,13.0,-100.00,North,0,0.0,0.0,89,-99.99,,,0.00,0.000000,,2013-01-15 09:11:00,
2013-01-15 02:42:00,15.0,13.0,-100.00,North,0,0.0,0.0,92,-99.99,,,0.00,0.000000,,2013-01-15 09:42:00,
2013-01-15 02:52:00,15.0,13.0,-100.00,North,0,0.0,0.0,92,-99.99,,,0.00,0.000000,,2013-01-15 09:52:00,
2013-01-15 03:02:00,15.0,13.0,-100.00,North,0,0.0,0.0,92,-99.99,,,0.00,0.000000,,2013-01-15 10:02:00,
2013-01-15 03:11:00,15.0,13.0,-100.00,North,0,0.0,0.0,92,-99.99,,,0.00,0.000000,,2013-01-15 10:11:00,
2013-01-15 03:42:00,15.0,13.0,-100.00,SE,134,1.0,3.0,91,-99.99,,,0.00,0.000000,,2013-01-15 10:42:00,
2013-01-15 03:52:00,15.0,13.0,-100.00,SE,134,1.0,3.0,91,-99.99,,,0.00,0.000000,,2013-01-15 10:52:00,
2013-01-15 04:02:00,15.0,13.0,-100.00,SE,134,1.0,3.0,91,-99.99,,,0.00,0.000000,,2013-01-15 11:02:00,
2013-01-15 04:12:00,15.0,13.0,-100.00,SE,134,1.0,3.0,91,-99.99,,,0.00,0.000000,,2013-01-15 11:12:00,
2013-01-15 04:42:00,15.0,13.0,-100.00,ESE,103,1.0,2.0,91,-99.99,,,-99.99,0.000000,,2013-01-15 11:42:00,
2013-01-15 04:53:00,15.0,13.0,-100.00,ESE,103,1.0,2.0,91,-99.99,,,-99.99,0.000000,,2013-01-15 11:53:00,
2013-01-15 05:02:00,15.0,13.0,-100.00,ESE,103,1.0,2.0,91,-99.99,,,-99.99,0.000000,,2013-01-15 12:02:00,
2013-01-15 05:12:00,15.0,13.0,-100.00,ESE,103,1.0,2.0,91,-99.99,,,-99.99,0.000000,,2013-01-15 12:12:00,
2013-01-15 05:42:00,13.0,11.0,-100.00,SE,129,1.0,3.0,92,-99.99,,,0.00,0.000000,,2013-01-15 12:42:00,
2013-01-15 05:53:00,13.0,11.0,-100.00,SE,129,1.0,3.0,92,-99.99,,,0.00,0.000000,,2013-01-15 12:53:00,
2013-01-15 06:02:00,13.0,11.0,-100.00,SE,129,1.0,3.0,92,-99.99,,,0.00,0.000000,,2013-01-15 13:02:00,
2013-01-15 06:12:00,13.0,11.0,-100.00,SE,129,1.0,3.0,92,-99.99,,,0.00,0.000000,,2013-01-15 13:12:00,
2013-01-15 06:33:00,15.0,13.0,-100.00,North,0,0.0,0.0,90,-99.99,,,0.00,0.000000,,2013-01-15 13:33:00,
2013-01-15 06:42:00,15.0,13.0,-100.00,North,0,0.0,0.0,90,-99.99,,,0.00,0.000000,,2013-01-15 13:42:00,
2013-01-15 06:53:00,15.0,13.0,-100.00,North,0,0.0,0.0,90,-99.99,,,0.00,0.000000,,2013-01-15 13:53:00,
2013-01-15 07:02:00,15.0,13.0,-100.00,North,0,0.0,0.0,90,-99.99,,,0.00,0.000000,,2013-01-15 14:02:00,
2013-01-15 07:12:00,15.0,13.0,-100.00,North,0,0.0,0.0,90,-99.99,,,0.00,0.000000,,2013-01-15 14:12:00,
2013-01-15 07:43:00,16.0,14.0,-100.00,North,0,0.0,0.0,91,-99.99,,,0.00,0.000000,,2013-01-15 14:43:00,
2013-01-15 07:53:00,16.0,14.0,-100.00,North,0,0.0,0.0,91,-99.99,,,0.00,0.000000,,2013-01-15 14:53:00,
2013-01-15 08:03:00,16.0,14.0,-100.00,North,0,0.0,0.0,91,-99.99,,,0.00,0.000000,,2013-01-15 15:03:00,
2013-01-15 08:12:00,16.0,14.0,-100.00,North,0,0.0,0.0,91,-99.99,,,0.00,0.000000,,2013-01-15 15:12:00,
2013-01-15 08:33:00,15.0,13.0,-100.00,North,0,0.0,0.0,92,-99.99,,,0.00,1.510000,,2013-01-15 15:33:00,
2013-01-15 08:43:00,15.0,13.0,-100.00,North,0,0.0,0.0,92,-99.99,,,0.00,1.510000,,2013-01-15 15:43:00,
2013-01-15 08:53:00,15.0,13.0,-100.00,North,0,0.0,0.0,92,-99.99,,,0.00,1.510000,,2013-01-15 15:53:00,
2013-01-15 09:02:00,15.0,13.0,-100.00,North,0,0.0,0.0,92,-99.99,,,0.00,1.510000,,2013-01-15 16:02:00,
2013-01-15 09:12:00,15.0,13.0,-100.00,North,0,0.0,0.0,92,-99.99,,,0.00,1.510000,,2013-01-15 16:12:00,
2013-01-15 09:42:00,16.0,15.0,-100.00,NE,49,0.0,2.0,93,-99.99,,,0.00,33.820000,,2013-01-15 16:42:00,
2013-01-15 09:53:00,16.0,15.0,-100.00,NE,49,0.0,2.0,93,-99.99,,,0.00,33.820000,,2013-01-15 16:53:00,
2013-01-15 10:03:00,16.0,15.0,-100.00,NE,49,0.0,2.0,93,-99.99,,,0.00,33.820000,,2013-01-15 17:03:00,
2013-01-15 10:12:00,16.0,15.0,-100.00,NE,49,0.0,2.0,93,-99.99,,,0.00,33.820000,,2013-01-15 17:12:00,
2013-01-15 10:42:00,17.0,15.0,-100.00,North,0,0.0,0.0,91,-99.99,,,0.00,92.160004,,2013-01-15 17:42:00,
2013-01-15 10:53:00,17.0,15.0,-100.00,North,0,0.0,0.0,91,-99.99,,,0.00,92.160004,,2013-01-15 17:53:00,
2013-01-15 11:02:00,17.0,15.0,-100.00,North,0,0.0,0.0,91,-99.99,,,0.00,92.160004,,2013-01-15 18:02:00,
2013-01-15 11:12:00,17.0,15.0,-100.00,North,0,0.0,0.0,91,-99.99,,,0.00,92.160004,,2013-01-15 18:12:00,
2013-01-15 11:42:00,19.0,16.0,-100.00,North,4,1.0,3.0,86,-99.99,,,0.00,172.589996,,2013-01-15 18:42:00,
2013-01-15 11:53:00,19.0,16.0,-100.00,North,4,1.0,3.0,86,-99.99,,,0.00,172.589996,,2013-01-15 18:53:00,
2013-01-15 12:03:00,19.0,16.0,-100.00,North,4,1.0,3.0,86,-99.99,,,0.00,172.589996,,2013-01-15 19:03:00,
2013-01-15 12:12:00,19.0,16.0,-100.00,North,4,1.0,3.0,86,-99.99,,,0.00,172.589996,,2013-01-15 19:12:00,
2013-01-15 12:42:00,21.0,16.0,-100.00,East,95,1.0,3.0,79,-99.99,,,0.00,228.949997,,2013-01-15 19:42:00,
2013-01-15 12:53:00,21.0,16.0,-100.00,East,95,1.0,3.0,79,-99.99,,,0.00,228.949997,,2013-01-15 19:53:00,
2013-01-15 13:03:00,21.0,16.0,-100.00,East,95,1.0,3.0,79,-99.99,,,0.00,228.949997,,2013-01-15 20:03:00,
2013-01-15 13:43:00,23.0,17.0,-100.00,North,0,1.0,4.0,78,-99.99,,,0.00,394.570007,,2013-01-15 20:43:00,
2013-01-15 13:53:00,23.0,17.0,-100.00,North,0,1.0,4.0,78,-99.99,,,0.00,394.570007,,2013-01-15 20:53:00,
2013-01-15 14:02:00,23.0,17.0,-100.00,North,0,1.0,4.0,78,-99.99,,,0.00,394.570007,,2013-01-15 21:02:00,
2013-01-15 14:43:00,24.0,17.0,-100.00,NNE,30,1.0,3.0,75,-99.99,,,0.00,350.170013,,2013-01-15 21:43:00,
2013-01-15 14:53:00,24.0,17.0,-100.00,NNE,30,1.0,3.0,75,-99.99,,,0.00,350.170013,,2013-01-15 21:53:00,
2013-01-15 15:02:00,24.0,17.0,-100.00,NNE,30,1.0,3.0,75,-99.99,,,0.00,350.170013,,2013-01-15 22:02:00,
2013-01-15 15:43:00,24.0,18.0,-100.00,NNE,23,1.0,3.0,75,-99.99,,,0.00,247.660004,,2013-01-15 22:43:00,
2013-01-15 15:53:00,24.0,18.0,-100.00,NNE,23,1.0,3.0,75,-99.99,,,0.00,247.660004,,2013-01-15 22:53:00,
2013-01-15 16:42:00,22.0,17.0,-100.00,SSE,151,2.0,5.0,79,-99.99,,,0.00,161.779999,,2013-01-15 23:42:00,
2013-01-15 17:43:00,21.0,16.0,-100.00,SE,134,2.0,5.0,83,-99.99,,,0.00,14.060000,,2013-01-16 00:43:00,
2013-01-15 17:53:00,21.0,16.0,-100.00,SE,134,2.0,5.0,83,-99.99,,,0.00,14.060000,,2013-01-16 00:53:00,
2013-01-15 18:02:00,21.0,16.0,-100.00,SE,134,2.0,5.0,83,-99.99,,,0.00,14.060000,,2013-01-16 01:02:00,
2013-01-15 18:12:00,21.0,16.0,-100.00,SE,134,2.0,5.0,83,-99.99,,,0.00,14.060000,,2013-01-16 01:12:00,
2013-01-15 18:42:00,20.0,16.0,-100.00,ESE,116,2.0,7.0,85,-99.99,,,0.00,0.000000,,2013-01-16 01:42:00,
2013-01-15 18:53:00,20.0,16.0,-100.00,ESE,116,2.0,7.0,85,-99.99,,,0.00,0.000000,,2013-01-16 01:53:00,
2013-01-15 19:02:00,20.0,16.0,-100.00,ESE,116,2.0,7.0,85,-99.99,,,0.00,0.000000,,2013-01-16 02:02:00,
2013-01-15 19:12:00,20.0,16.0,-100.00,ESE,116,2.0,7.0,85,-99.99,,,0.00,0.000000,,2013-01-16 02:12:00,
2013-01-15 19:42:00,18.0,16.0,-100.00,East,95,2.0,6.0,91,-99.99,,,0.00,0.000000,,2013-01-16 02:42:00,
2013-01-15 19:53:00,18.0,16.0,-100.00,East,95,2.0,6.0,91,-99.99,,,0.00,0.000000,,2013-01-16 02:53:00,
2013-01-15 20:02:00,18.0,16.0,-100.00,East,95,2.0,6.0,91,-99.99,,,0.00,0.000000,,2013-01-16 03:02:00,
2013-01-15 20:11:00,18.0,16.0,-100.00,East,95,2.0,6.0,91,-99.99,,,0.00,0.000000,,2013-01-16 03:11:00,
2013-01-15 20:42:00,18.0,16.0,-100.00,North,6,0.0,2.0,92,-99.99,,,0.00,0.000000,,2013-01-16 03:42:00,
2013-01-15 20:53:00,18.0,16.0,-100.00,North,6,0.0,2.0,92,-99.99,,,0.00,0.000000,,2013-01-16 03:53:00,
2013-01-15 21:02:00,18.0,16.0,-100.00,North,6,0.0,2.0,92,-99.99,,,0.00,0.000000,,2013-01-16 04:02:00,
2013-01-15 21:12:00,18.0,16.0,-100.00,North,6,0.0,2.0,92,-99.99,,,0.00,0.000000,,2013-01-16 04:12:00,
2013-01-15 21:42:00,15.0,14.0,-100.00,ESE,103,1.0,3.0,95,-99.99,,,0.00,0.000000,,2013-01-16 04:42:00,
2013-01-15 21:52:00,15.0,14.0,-100.00,ESE,103,1.0,3.0,95,-99.99,,,0.00,0.000000,,2013-01-16 04:52:00,
2013-01-15 22:03:00,15.0,14.0,-100.00,ESE,103,1.0,3.0,95,-99.99,,,0.00,0.000000,,2013-01-16 05:03:00,
2013-01-15 22:12:00,15.0,14.0,-100.00,ESE,103,1.0,3.0,95,-99.99,,,0.00,0.000000,,2013-01-16 05:12:00,
2013-01-15 22:42:00,14.0,13.0,-100.00,ESE,106,2.0,5.0,96,-99.99,,,0.00,0.000000,,2013-01-16 05:42:00,
2013-01-15 22:53:00,14.0,13.0,-100.00,ESE,106,2.0,5.0,96,-99.99,,,0.00,0.000000,,2013-01-16 05:53:00,
2013-01-15 23:11:00,14.0,13.0,-100.00,ESE,106,2.0,5.0,96,-99.99,,,0.00,0.000000,,2013-01-16 06:11:00,
2013-01-15 23:42:00,11.0,10.0,-100.00,SSW,202,0.0,2.0,95,-99.99,,,0.00,0.000000,,2013-01-16 06:42:00,
2013-01-15 23:53:00,11.0,10.0,-100.00,SSW,202,0.0,2.0,95,-99.99,,,0.00,0.000000,,2013-01-16 06:53:00,